Location: B�hl
(48.6968°N, 8.1352°E)
Time: 00:07:12
(UTC+00:00)

Cosmos 2297 - Pass Details

Date: 08 March 2021
Orbit: 836 x 858 km, 71.0° (Epoch: 20 April)

Event Time Altitude Azimuth Distance (km) Brightness Sun altitude
Rises 20:37:39 0° 330° (NNW) 3,441 7.8 -31.6°
Reaches altitude 10° 20:40:08 10° 328° (NNW) 2,499 6.9 -31.9°
Enters shadow 20:44:46 55° 299° (WNW) 1,021 4.3 -32.6°
